Voltar ao catálogo

SL-8 R/B

AtivoPO
NORAD 12682·ROCKET BODY·🇷🇺 Russia

Lançado Aug 12, 1981 de Plesetsk Cosmodrome

Loading…

Próximas Passagens (próximas 24 horas)

TLE

AtualizadoSource: Space-Track

Época: Sep 14, 2026, 06:07 UTC

1 12682U 81077B   26257.25518117  .00000033  00000-0  17677-4 0  9992
2 12682  82.9203  10.3878 0032884 231.6173 128.2030 13.78899487267791

Acompanhe SL-8 R/B em tempo real com AllMySat

Download on the App Store